Time_in_sec,Mx,My,Mz
1314364788.46511745,0.29479450,0.69881040,-0.33860448
1314364788.51392531,0.29727665,0.69621468,-0.33898190
1314364788.56251478,0.29332250,0.69717342,-0.34030214
1314364788.61261606,0.29753333,0.69696110,-0.33694211
1314364788.66548204,0.29308239,0.69642389,-0.34207022
1314364788.71248484,0.29415941,0.69675237,-0.33794901
1314364788.76561475,0.29510182,0.69736362,-0.33600366
1314364788.82510853,0.29553819,0.69478595,-0.33595878
1314364788.86562109,0.29503843,0.69675845,-0.33938697
1314364788.91346574,0.29471290,0.69607890,-0.33574584
1314364788.96506143,0.29340422,0.69523114,-0.33919975
1314364789.01307940,0.29479158,0.69555008,-0.33451894
1314364789.06548667,0.29486689,0.69699836,-0.33763897
1314364789.11261034,0.29472423,0.69854206,-0.33752358
1314364789.16550016,0.29236409,0.69726115,-0.33562067
1314364789.21278667,0.29477844,0.69848180,-0.33210528
1314364789.26506495,0.29398179,0.69594097,-0.33416289
1314364789.31360412,0.29466045,0.69591069,-0.33209267
1314364789.36509752,0.29313153,0.69518369,-0.33461273
1314364789.41260147,0.29554570,0.69617242,-0.33339682
1314364789.46547508,0.29397160,0.69928241,-0.33391804
1314364789.51257277,0.29430231,0.69646811,-0.33563730
1314364789.56549668,0.29206029,0.69593525,-0.33170265
1314364789.61288381,0.29432648,0.69602829,-0.33075932
1314364789.66554499,0.29052034,0.69503212,-0.32989025
1314364789.71361327,0.29627618,0.69690281,-0.33038178
1314364789.76261806,0.29284838,0.69619071,-0.33233559
1314364789.81344819,0.29382887,0.69592047,-0.33214113
1314364789.86547422,0.29132685,0.69479519,-0.33254889
1314364789.91299772,0.29491910,0.69822294,-0.33209512
1314364789.96550775,0.29057196,0.69556087,-0.33124492
1314364790.01322246,0.29270458,0.69580799,-0.33247641
1314364790.06505966,0.29281035,0.69524902,-0.32854035
1314364790.11345530,0.29358307,0.69458342,-0.32727206
1314364790.16466880,0.29043955,0.69479066,-0.33124679
1314364790.21304393,0.29703954,0.69636744,-0.32925037
1314364790.26550245,0.29301205,0.69744372,-0.32949281
1314364790.31307530,0.29321992,0.69498849,-0.32864994
1314364790.36549282,0.29173058,0.69474274,-0.32819325
1314364790.41254187,0.29350874,0.69585717,-0.32606772
1314364790.46467757,0.29141408,0.69552416,-0.32875904
1314364790.51254559,0.29406831,0.69623494,-0.32590267
1314364790.56549001,0.29347447,0.69393706,-0.32686740
1314364790.61261034,0.29366690,0.69728953,-0.32782912
1314364790.66545606,0.29083690,0.69527817,-0.32919687
1314364790.71362162,0.29445690,0.69808334,-0.33063191
1314364790.76550150,0.29263759,0.69538563,-0.32909292
1314364790.81349397,0.29231977,0.69400877,-0.33221444
1314364790.86560774,0.29216668,0.69375628,-0.33249217
1314364790.91348600,0.29235065,0.69402778,-0.33397257
1314364790.96502566,0.29238680,0.69545865,-0.33547035
1314364791.01359606,0.29545215,0.69701087,-0.33936480
1314364791.06546640,0.29234424,0.69741833,-0.33819500
1314364791.11258888,0.29455566,0.69634098,-0.33602768
1314364791.16568279,0.29180199,0.69462174,-0.34064201
1314364791.21326256,0.29277828,0.69668919,-0.34249601
1314364791.26561284,0.29134795,0.69630367,-0.34108725
1314364791.31355119,0.29396242,0.69630128,-0.34350714
1314364791.36466241,0.29242450,0.69411331,-0.34182027
1314364791.41261387,0.29462335,0.69719839,-0.34388158
1314364791.46548319,0.29371911,0.69776076,-0.34732261
1314364791.51347899,0.29640335,0.69782358,-0.34405351
1314364791.56546664,0.29203433,0.69557601,-0.34577969
1314364791.61363769,0.29372653,0.69709224,-0.34501588
1314364791.66462779,0.29302502,0.69584250,-0.34761924
1314364791.71346307,0.29454234,0.69672507,-0.34753764
1314364791.76501012,0.29315120,0.69635701,-0.34775114
1314364791.81300139,0.29520327,0.69762218,-0.34791207
1314364791.86332583,0.29569146,0.69968337,-0.34871149
1314364791.91338944,0.29432297,0.69648528,-0.34890226
1314364791.96949029,0.29358959,0.69637275,-0.34962091
1314364792.01350164,0.29547623,0.69607842,-0.34815526
1314364792.06504226,0.29296291,0.69636816,-0.34857440
1314364792.11347461,0.29335493,0.69726694,-0.34882912
1314364792.16562653,0.29300827,0.69561374,-0.35019046
1314364792.21253824,0.29638836,0.69892877,-0.35096648
1314364792.26550698,0.29392758,0.69756365,-0.35299447
1314364792.31349111,0.29579359,0.69881457,-0.35167706
1314364792.36549401,0.29248276,0.69692409,-0.35185537
1314364792.41318512,0.29432493,0.69805115,-0.35094452
1314364792.46562338,0.29488343,0.69753009,-0.35090807
1314364792.51345158,0.29500031,0.69817483,-0.35117689
1314364792.56497574,0.29286644,0.69679689,-0.35237354
1314364792.61261582,0.29511487,0.69781739,-0.35387489
1314364792.66275930,0.29305759,0.69901854,-0.35576344
1314364792.71294403,0.29630050,0.69879222,-0.35015836
1314364792.76189661,0.29459262,0.69794619,-0.35336477
1314364792.81278968,0.29357582,0.69758117,-0.35423335
1314364792.86546683,0.29271331,0.69654441,-0.35265127
1314364792.91360998,0.29444253,0.69628030,-0.35376701
1314364792.96487284,0.29471561,0.69679159,-0.35375497
1314364793.01348090,0.29567739,0.69860488,-0.35587862
1314364793.06800771,0.29419649,0.69756198,-0.35311416
1314364793.11250305,0.29627708,0.70069462,-0.35937911
1314364793.16948962,0.29496795,0.69679308,-0.35414642
1314364793.22463918,0.29408157,0.69848311,-0.35488760
1314364793.26561594,0.29714704,0.69821221,-0.35673773
1314364793.31348991,0.29528862,0.69652462,-0.35344890
1314364793.36561227,0.29520768,0.69707882,-0.35697734
1314364793.41259980,0.29612610,0.69733423,-0.35773808
1314364793.46547294,0.29700324,0.70170766,-0.35866770
1314364793.51322293,0.29552102,0.69850641,-0.35845897
1314364793.56583333,0.29430676,0.69748718,-0.35811579
1314364793.62460756,0.29579008,0.69770914,-0.35640678
1314364793.66493797,0.29686484,0.69806302,-0.35458714
1314364793.71348810,0.29648191,0.69965279,-0.35841176
1314364793.76467848,0.29647151,0.69888413,-0.35867727
1314364793.81347847,0.29669920,0.69912231,-0.35717678
1314364793.86551762,0.29471940,0.69684070,-0.35822228
1314364793.91354537,0.29733923,0.70030522,-0.36012658
1314364793.96544933,0.29682326,0.69886655,-0.35743836
1314364794.01351833,0.29712105,0.70016873,-0.35919067
1314364794.06560135,0.29574579,0.69936246,-0.35466209
1314364794.11358523,0.29527301,0.69822228,-0.35576391
1314364794.16561151,0.29480416,0.69736314,-0.35903350
1314364794.21348715,0.29838189,0.70053679,-0.35884938
1314364794.26947427,0.29708815,0.70143449,-0.35730702
1314364794.31250525,0.29640666,0.69923198,-0.35516411
1314364794.36549997,0.29519430,0.69875109,-0.35699078
1314364794.42449212,0.29653269,0.69666398,-0.35567883
1314364794.46560144,0.29654726,0.69794559,-0.35528156
1314364794.51367807,0.29709876,0.69855690,-0.35295287
1314364794.56561756,0.29424086,0.69796371,-0.35460368
1314364794.61260748,0.29712689,0.69839817,-0.35024267
1314364794.66791892,0.29349926,0.69888026,-0.35533059
1314364794.71251845,0.29737073,0.70204747,-0.35485861
1314364794.76568818,0.29420581,0.69743174,-0.35297728
1314364794.81259680,0.29379198,0.69900250,-0.35504374
1314364794.86746430,0.29444671,0.69679326,-0.35363528
1314364794.91343379,0.29554620,0.69793797,-0.35357997
1314364794.96546578,0.29411969,0.69760162,-0.35663849
1314364795.01339078,0.29618958,0.69999439,-0.35409957
1314364795.06294990,0.29489520,0.69916880,-0.35958335
1314364795.11249089,0.29585135,0.69754404,-0.35315314
1314364795.16550493,0.29424062,0.69670427,-0.35703078
1314364795.21248555,0.29757017,0.70038939,-0.35632351
1314364795.26560402,0.29514250,0.69799042,-0.35793561
1314364795.31344891,0.29571879,0.69756943,-0.35532692
1314364795.36484075,0.29537016,0.69822860,-0.35643512
1314364795.41260624,0.29525918,0.69840324,-0.36050394
1314364795.47156692,0.29617983,0.69863325,-0.35896307
1314364795.51249433,0.29831979,0.70106244,-0.35980454
1314364795.56447244,0.29489407,0.69724244,-0.35983956
1314364795.61246967,0.29898381,0.69872302,-0.35825917
1314364795.66488171,0.29566476,0.69786161,-0.35844573
1314364795.71347094,0.29527682,0.69929892,-0.36010358
1314364795.76473856,0.29481366,0.69746482,-0.35659710
1314364795.81266379,0.29711375,0.69901413,-0.35945311
1314364795.86545062,0.29711983,0.70006543,-0.36149123
1314364795.91350698,0.29667178,0.69686544,-0.36244065
1314364795.96553564,0.29524574,0.69904798,-0.36064497
1314364796.01352668,0.29683259,0.69873637,-0.35730147
1314364796.06561804,0.29546905,0.69854128,-0.36157572
1314364796.11344123,0.29700711,0.69993365,-0.36109069
1314364796.16485238,0.29589429,0.69761056,-0.35924268
1314364796.21317101,0.29653230,0.70007831,-0.36206695
1314364796.26554799,0.29604313,0.69917321,-0.36114100
1314364796.31351733,0.29688388,0.69982880,-0.36312756
1314364796.36549473,0.29412761,0.69816375,-0.36097407
1314364796.41260910,0.29716125,0.70005751,-0.36081192
1314364796.46485066,0.29526848,0.69827300,-0.36036706
1314364796.51344419,0.29724187,0.70006698,-0.36175486
1314364796.56485415,0.29652309,0.69838542,-0.36015955
1314364796.61277103,0.29772720,0.69989538,-0.35834116
1314364796.66550088,0.29570213,0.70327389,-0.35943207
1314364796.71309209,0.29681504,0.69989568,-0.35744664
1314364796.76546645,0.29540938,0.69927353,-0.35792980
1314364796.81254935,0.29592651,0.69978791,-0.35844508
1314364796.86452937,0.29484558,0.69735521,-0.35835418
1314364796.91349506,0.29520896,0.69820958,-0.35454923
1314364796.96465349,0.29665992,0.70092797,-0.35759884
1314364797.01351118,0.29521799,0.69967061,-0.35875615
1314364797.06549597,0.29480642,0.69733781,-0.35673192
1314364797.11327028,0.29666570,0.69969231,-0.36219165
1314364797.16549730,0.29437715,0.69695991,-0.35702476
1314364797.21321464,0.29635680,0.70003712,-0.35815120
1314364797.26475406,0.29460609,0.69832891,-0.35309616
1314364797.31268907,0.29436910,0.69822097,-0.35473353
1314364797.36226869,0.29498428,0.69940865,-0.35809091
1314364797.41246343,0.29527387,0.69888926,-0.35793477
1314364797.46547604,0.29554278,0.69888759,-0.35805449
1314364797.51253295,0.29478043,0.69929433,-0.35918486
1314364797.56448245,0.29353273,0.70218843,-0.35210484
1314364797.61254382,0.29583800,0.70255959,-0.34141487
1314364797.66482377,0.29274538,0.69795495,-0.34061235
1314364797.71357846,0.29406944,0.69972378,-0.33905965
1314364797.76549125,0.29501343,0.69755882,-0.34196645
1314364797.81250954,0.29401308,0.69798625,-0.34473523
1314364797.86546707,0.29376569,0.69710964,-0.34663814
1314364797.91338038,0.29586542,0.69862252,-0.34598598
1314364797.96549296,0.29404682,0.69635993,-0.34891739
1314364798.01349211,0.29649371,0.69687843,-0.35175705
1314364798.06465220,0.29432580,0.69483995,-0.35132626
1314364798.11347556,0.29437745,0.69536871,-0.35268095
1314364798.16452312,0.29402450,0.69631052,-0.35609281
1314364798.21265984,0.29468757,0.69900537,-0.35620999
1314364798.26546001,0.29569882,0.69954973,-0.35994557
1314364798.31356382,0.29662442,0.69502652,-0.35890993
1314364798.36550903,0.29526877,0.69668180,-0.35602322
1314364798.41273260,0.29492006,0.69528586,-0.35738662
1314364798.46470404,0.29526740,0.69737411,-0.36049569
1314364798.51343274,0.29564092,0.69773769,-0.35885230
1314364798.56467247,0.29560915,0.69705176,-0.35492328
1314364798.61250234,0.29610643,0.69772333,-0.35801288
1314364798.66179991,0.29558837,0.69939262,-0.35724345
1314364798.71247554,0.29710859,0.69965732,-0.35945827
1314364798.76546431,0.29450735,0.69878304,-0.35919687
1314364798.82450724,0.29666817,0.69989890,-0.35759056
1314364798.86164021,0.29767868,0.69898069,-0.35698336
1314364798.91345167,0.29574546,0.69604796,-0.35734439
1314364798.96469283,0.29598111,0.69787574,-0.36005184
1314364799.01264095,0.29653987,0.69861412,-0.35758832
1314364799.06161451,0.29782531,0.70159620,-0.36105567
1314364799.11270189,0.29591081,0.69657987,-0.35909855
1314364799.16550183,0.29519460,0.70103806,-0.35443607
1314364799.22466826,0.29802522,0.69857877,-0.35587722
1314364799.26553607,0.29408652,0.69760799,-0.35718194
1314364799.31347466,0.29649633,0.69785184,-0.35839728
1314364799.36163497,0.29585013,0.69744074,-0.35545367
1314364799.41263318,0.29543111,0.69862717,-0.35765290
1314364799.46360040,0.29635784,0.69990849,-0.35815015
1314364799.51246309,0.29792890,0.70209008,-0.35929358
1314364799.56551623,0.29397255,0.69634539,-0.35920954
1314364799.61258960,0.29618609,0.69991648,-0.35870168
1314364799.66459441,0.29456425,0.69684553,-0.35850206
1314364799.71344233,0.29733217,0.70041007,-0.35796192
1314364799.76459861,0.29627714,0.69784397,-0.35746241
1314364799.81270742,0.29664099,0.69890147,-0.36042732
1314364799.86182642,0.29828855,0.70160717,-0.36251783
1314364799.91252398,0.29554686,0.69734550,-0.35817796
1314364799.96551895,0.29602349,0.69956231,-0.36141583
1314364800.01347184,0.29722556,0.69847894,-0.35768276
1314364800.06451464,0.29571965,0.69823641,-0.35749781
1314364800.11383605,0.29657492,0.69914609,-0.35921472
1314364800.16460037,0.29598239,0.69900656,-0.35762373
1314364800.21260476,0.29757625,0.70144069,-0.35836160
1314364800.26550174,0.29537335,0.69989771,-0.35617685
1314364800.31278825,0.29753479,0.70042109,-0.35916853
1314364800.36549211,0.29578921,0.69806969,-0.35410830
1314364800.41348195,0.29630125,0.70025480,-0.35450116
1314364800.46451354,0.29514876,0.69927359,-0.35767424
1314364800.51359892,0.29618642,0.69935280,-0.35423025
1314364800.56456494,0.29373452,0.69868183,-0.34922385
1314364800.61360812,0.29458258,0.70049202,-0.35094801
1314364800.66743183,0.29662639,0.70278627,-0.35111719
1314364800.71367908,0.29570818,0.69888461,-0.34626785
1314364800.76166749,0.29495201,0.69851953,-0.34739202
1314364800.82155824,0.29426643,0.69785911,-0.34512565
1314364800.86156893,0.29478624,0.69983953,-0.33861274
1314364800.91358280,0.29576856,0.69805253,-0.34084332
1314364800.96464181,0.29449224,0.69858652,-0.34132773
1314364801.01256871,0.29335788,0.69714171,-0.33745712
1314364801.06193042,0.29332769,0.69755775,-0.34016937
1314364801.11257029,0.29502824,0.70009989,-0.33914211
1314364801.16549516,0.29394677,0.69643652,-0.33240891
1314364801.21293187,0.29442963,0.69890904,-0.33551300
1314364801.26462936,0.29318577,0.69900161,-0.33098355
1314364801.31362510,0.29329613,0.69710368,-0.33394086
1314364801.36153078,0.29251838,0.69658941,-0.33317000
1314364801.41195178,0.29394370,0.69682246,-0.33241200
1314364801.46548581,0.29521787,0.69836891,-0.33397400
1314364801.51248717,0.29414964,0.69770700,-0.33118841
1314364801.56555200,0.29252151,0.69723099,-0.33303931
1314364801.61415982,0.29404908,0.69579965,-0.33307499
1314364801.66286159,0.29211327,0.69577175,-0.32858488
1314364801.71356511,0.29290518,0.69710386,-0.33355749
1314364801.76458812,0.29370484,0.69720370,-0.33175194
1314364801.81270599,0.29351777,0.69731814,-0.33027464
1314364801.86155701,0.29319915,0.69732934,-0.33097011
1314364801.91273141,0.29282171,0.69771218,-0.33031812
1314364801.96551633,0.29194140,0.69657528,-0.33130831
1314364802.01261806,0.29416826,0.69744658,-0.33091462
1314364802.06456065,0.29230738,0.69452488,-0.33235446
1314364802.11350489,0.29221854,0.69554454,-0.33141977
1314364802.16476393,0.29118940,0.69672322,-0.33230075
1314364802.21269274,0.29300153,0.69747072,-0.33193025
1314364802.26151538,0.29521266,0.69798458,-0.33410677
1314364802.31259990,0.29159164,0.69530803,-0.33267274
1314364802.37364411,0.29246154,0.69567627,-0.33194807
1314364802.41250014,0.29379267,0.70019090,-0.33447680
1314364802.46859193,0.29160395,0.69661504,-0.33457705
1314364802.51400089,0.29266226,0.69514894,-0.33098483
1314364802.57352257,0.29249263,0.69592720,-0.33140671
1314364802.61410117,0.29344711,0.69658595,-0.33379278
1314364802.66151428,0.29279017,0.69596988,-0.33558613
1314364802.71351290,0.29331049,0.69815344,-0.33584312
1314364802.76552701,0.29332593,0.69622386,-0.33582762
1314364802.81250596,0.29257387,0.69534421,-0.33694765
1314364802.86451244,0.29251397,0.69481701,-0.33572882
1314364802.91351199,0.29443282,0.69670004,-0.33346558
1314364802.96163964,0.29163897,0.69611949,-0.33633107
1314364803.01262498,0.29393011,0.69826281,-0.33472493
1314364803.06227541,0.29333404,0.69986850,-0.33978039
1314364803.11258340,0.29305893,0.69676381,-0.33787775
1314364803.16553569,0.29360092,0.69727343,-0.33798543
1314364803.21258903,0.29546666,0.69726497,-0.33909515
1314364803.26457620,0.29129010,0.69551921,-0.33986637
1314364803.31346369,0.29512346,0.69854033,-0.33777109
1314364803.36158919,0.29423791,0.69599164,-0.33902162
1314364803.41251993,0.29326564,0.69911093,-0.34099695
1314364803.46163201,0.29396561,0.69797039,-0.34324884
1314364803.51259184,0.29552129,0.69923097,-0.34249103
1314364803.56551743,0.29227045,0.69604456,-0.34184384
1314364803.61293316,0.29499519,0.69828314,-0.33764124
1314364803.66856050,0.29413956,0.69690955,-0.34052333
1314364803.71491981,0.29463193,0.69948375,-0.34119102
1314364803.76453042,0.29196307,0.69646382,-0.34457225
1314364803.81260586,0.29609644,0.69688362,-0.34013855
1314364803.86146808,0.29558641,0.70014250,-0.34357709
1314364803.91252327,0.29504222,0.69680756,-0.34385425
1314364803.96148181,0.29587078,0.69923878,-0.34355372
1314364804.01350594,0.29491392,0.69552284,-0.34385198
1314364804.06158972,0.29241642,0.69822502,-0.34144574
1314364804.11360145,0.29401112,0.69642043,-0.34269300
1314364804.16459942,0.29548103,0.69831467,-0.34099740
1314364804.21148038,0.29666927,0.70026290,-0.34392112
1314364804.26453543,0.29246482,0.69993532,-0.34497541
1314364804.31350732,0.29636595,0.69914007,-0.34677300
1314364804.36497283,0.29421777,0.69774002,-0.34593979
1314364804.41643786,0.29464388,0.69747627,-0.34577763
1314364804.46451068,0.29474330,0.69745719,-0.34414729
1314364804.51344562,0.29605377,0.69963890,-0.34503514
1314364804.56453419,0.29482812,0.69900721,-0.34483093
1314364804.61257958,0.29396558,0.69694293,-0.34337643
1314364804.66147423,0.29587051,0.70082998,-0.34789753
1314364804.71310019,0.29308215,0.69904262,-0.34628645
1314364804.76567578,0.29463360,0.69876266,-0.34578797
1314364804.81324339,0.29489011,0.69927710,-0.34604767
1314364804.86545277,0.29385066,0.69786400,-0.34514987
1314364804.91346359,0.29451647,0.69685847,-0.34794626
1314364804.96146655,0.29424143,0.69865948,-0.34770516
1314364805.01249957,0.29532126,0.69631511,-0.34613556
1314364805.06551218,0.29437479,0.69724602,-0.34795743
1314364805.11213422,0.29679734,0.70028818,-0.34635046
1314364805.16148019,0.29343984,0.69699377,-0.34746844
1314364805.21247125,0.29566059,0.69966435,-0.34695336
1314364805.26297855,0.29571229,0.69837004,-0.34626371
1314364805.31347442,0.29409450,0.69763517,-0.34797668
1314364805.36155486,0.29415971,0.69672358,-0.34701842
1314364805.41212225,0.29636383,0.69836986,-0.34690264
1314364805.46146441,0.29632679,0.70300084,-0.34693983
1314364805.51268435,0.29437900,0.69878650,-0.34769809
1314364805.56550741,0.29422194,0.69825298,-0.34580806
1314364805.61278129,0.29344207,0.69696844,-0.34516686
1314364805.66454434,0.29474214,0.69838142,-0.34632024
1314364805.71345305,0.29416388,0.70111471,-0.34867582
1314364805.76449823,0.29368916,0.69943625,-0.34760779
1314364805.81554151,0.29535848,0.69864488,-0.34750468
1314364805.86294842,0.29534185,0.69762051,-0.34790400
1314364805.91253304,0.29502118,0.69788897,-0.34860152
1314364805.96550012,0.29447219,0.69851178,-0.34620157
1314364806.01272941,0.29334080,0.69747669,-0.34449977
1314364806.06223726,0.29451251,0.69657743,-0.34577847
1314364806.11346436,0.29528946,0.69847983,-0.34412324
1314364806.16148329,0.29446059,0.69763982,-0.34876764
1314364806.21351719,0.29509464,0.69982648,-0.34942412
1314364806.26742196,0.29596031,0.69865417,-0.34895879
1314364806.31339431,0.29343155,0.69699538,-0.34760430
